Location: Bucquoy
(50.1391°N, 2.7097°E)
Time: 23:40:26
(UTC+00:00)

IDEFIX/ARIANE 42P - Pass Details

Date: 06 May 2021
Orbit: 786 x 802 km, 98.4° (Epoch: 21 June)

Event Time Altitude Azimuth Distance (km) Brightness Sun altitude
Rises 03:01:01 0° 13° (NNE) 3,315 6.8 -10.7°
Reaches altitude 10° 03:03:21 10° 11° (N) 2,383 5.9 -10.4°
Maximum altitude 03:08:36 72° 288° (WNW) 843 2.6 -9.8°
Drops below altitude 10° 03:13:50 10° 205° (SSW) 2,373 4.5 -9.2°
Enters shadow 03:14:10 - 205° (SSW) 2,506 4.6 -9.1°
